Regional Weather Roundup
Issued by NWS

Home | Current Version | Previous Version | Text Only | Print | Product List | Glossary Off
Versions: 1 2 3 4 5 6 7 8 9 10 11 12 13 14 15 16 17 18 19 20 21 22 23 24 25 26 27 28 29 30 31 32 33 34 35 36 37 38 39 40 41 42 43 44 45 46 47 48 49 50

000
ASUS43 KTOP 200208
RWRKS

WEATHER ROUNDUP FOR KANSAS
NATIONAL WEATHER SERVICE GOODLAND KS
800 PM CST MON FEB 19 2018

NOTE:  "FAIR" INDICATES FEW OR NO CLOUDS BELOW 12,000 FEET WITH NO
SIGNIFICANT WEATHER AND/OR OBSTRUCTIONS TO VISIBILITY.

KSZ001>006-013>018-027>032-041>047-200300-
NORTHWEST KANSAS

CITY           SKY/WX    TMP DP  RH WIND       PRES   REMARKS
GOODLAND       FLURRIES  13  10  88 NE10      29.71R WCI   0
HAYS           CLOUDY    22  15  75 N13       29.80F WCI  10
HILL CITY      CLOUDY    19  14  81 NE14      29.81F WCI   6
RUSSELL        CLOUDY    24  16  71 N12       29.79R WCI  13
$$

KSZ061>065-074>080-084>089-200300-
SOUTHWEST KANSAS

CITY           SKY/WX    TMP DP  RH WIND       PRES   REMARKS
DODGE CITY     CLOUDY    28  15  58 NE15      29.73R WCI  16
ELKHART        PTCLDY    35  26  68 E16G23    29.60S WCI  25
GARDEN CITY    CLOUDY    24  13  62 E12       29.71R WCI  13
GREAT BEND     CLOUDY    26  17  68 N14       29.79R WCI  14
LIBERAL        CLOUDY    33  20  58 E14       29.66F WCI  23
PRATT          CLOUDY    32  18  57 NE13      29.76R WCI  22
$$

KSZ066>073-081>083-090>101-200300-
SOUTHEAST KANSAS

CITY           SKY/WX    TMP DP  RH WIND       PRES   REMARKS
CHANUTE        CLOUDY    35  34  96 N7        29.81F FOG
COFFEYVILLE    CLOUDY    38  37  97 N8        29.79F FOG
HUTCHINSON     CLOUDY    30  23  75 NE6       29.79R
MEDICINE LODGE   N/A     32  23  69 NE10      29.76F WCI  24
NEWTON         CLOUDY    28  23  81 N12       29.80R WCI  18
PARSONS        CLOUDY    36  36 100 N6        29.80F FOG
WICHITA INTL   CLOUDY    31  25  78 NE13      29.79S WCI  21
WICHITA JABRA  CLOUDY    30  25  81 NE9       29.79S
WICHITA MCCONL CLOUDY    31  24  77 NE9       29.78S
WINFIELD       CLOUDY    33  30  88 E8        29.77F
$$

KSZ007>012-019>026-033>040-048>060-102>105-200300-
NORTHEAST KANSAS

CITY           SKY/WX    TMP DP  RH WIND       PRES   REMARKS
CONCORDIA      CLOUDY    21  17  84 N10       29.83F WCI  10
EMPORIA        CLOUDY    31  25  78 N9        29.81S
LAWRENCE       CLOUDY    32  28  85 N12       29.84S WCI  23
MANHATTAN      CLOUDY    29  21  72 N8        29.84S
MARYSVILLE     CLOUDY    25  21  86 N10       29.84F WCI  15
OLATHE IND     CLOUDY    31  30  96 N9        29.83S
OLATHE EXE     CLOUDY    31  30  96 N7        29.82S
SALINA         CLOUDY    27  19  72 N14       29.83S WCI  16
TOPEKA BILLARD CLOUDY    31  27  85 N8        29.84S
TOPEKA FORBES  CLOUDY    32  27  81 N8        29.82F
$$




USA.gov is the U.S. government's official web portal to all federal, state and local government web resources and services.